Location: Dos Palmas
(32.4468°N, 116.8732°W)
Time: 00:36:51
(UTC+00:00)

Cosmos 2228 - Pass Details

Date: 20 June 2021
Orbit: 588 x 618 km, 82.5° (Epoch: 01 August)

Event Time Altitude Azimuth Distance (km) Brightness Sun altitude
Rises 06:00:56 0° 359° (N) 2,896 7.4 -28.4°
Reaches altitude 10° 06:03:13 10° 4° (N) 1,985 6.3 -28.7°
Enters shadow 06:05:50 33° 22° (NNE) 1,044 4.5 -28.9°
